Voltar ao catálogo

ARIANE 1 DEB

AtivoPO
NORAD 35517·DEBRIS·🇫🇷 France

Lançado Feb 22, 1986 de Guiana Space Centre

Loading…

Próximas Passagens (próximas 24 horas)

TLE

AtualizadoSource: Space-Track

Época: Sep 14, 2026, 04:10 UTC

1 35517U 86019VQ  26257.17371612  .00000102  00000-0  99856-4 0  9999
2 35517  98.8966  28.2565 0380782  39.1298 323.6739 13.67685952155070

Acompanhe ARIANE 1 DEB em tempo real com AllMySat

Download on the App Store